Location: Marengo
(51.4813°N, 109.7825°W)
Time: 21:29:30
(UTC+00:00)

Envisat - Pass Details

Date: 29 January 2022
Orbit: 764 x 765 km, 98.2° (Epoch: 21 May)

Event Time Altitude Azimuth Distance (km) Brightness Sun altitude
Rises 10:45:44 0° 28° (NNE) 3,243 6.8 -39.3°
Reaches altitude 10° 10:49:13 10° 53° (NE) 2,311 6.1 -38.8°
Maximum altitude 10:51:55 14° 86° (E) 2,021 5.8 -38.4°
Drops below altitude 10° 10:54:35 10° 118° (ESE) 2,302 5.8 -38.1°
Sets 10:58:01 0° 142° (SE) 3,222 6.4 -37.6°
